Danville, KY

4:41 AM EDT on June 27, 2017 (GMT -0400)
Powell

Weather History for KDVK - April, 2014

Change the Weather History Date:

Tuesday, April 15, 2014

  Actual Average (KLEX) Record (KLEX)
Temperature  
Mean Temperature 39 °F -  
Max Temperature 48 °F 64 °F 84 °F (2010)
Min Temperature 30 °F 44 °F 25 °F (1943)
Degree Days  
Heating Degree Days 26    
Moisture  
Dew Point 31 °F    
Average Humidity 84    
Maximum Humidity 100    
Minimum Humidity 52    
Precipitation  
Precipitation 0.00 in - - ()
Sea Level Pressure  
Sea Level Pressure 30.03 in    
Wind  
Wind Speed 10 mph (NNW)    
Max Wind Speed 18 mph    
Max Gust Speed 29 mph    
Visibility 8 miles    
Events Rain , Snow    
Averages and records for this station are not official NWS values.
T = Trace of Precipitation, MM = Missing Value Source: NWS Daily Summary

Daily Weather History Graph

Daily Weather History Graph

Search for Another Location

Airport or City:

Trip Planner

Search our weather history database for the weather conditions in past years. The results will help you decide how hot, cold, wet, or windy it might be!

Date:

Astronomy

Apr. 15, 2014 Rise Set
Actual Time 7:04 AM EDT 8:14 PM EDT
Civil Twilight 6:37 AM EDT 8:41 PM EDT
Nautical Twilight 6:05 AM EDT 9:13 PM EDT
Astronomical Twilight 5:31 AM EDT 9:47 PM EDT
Moon 8:53 PM EDT (4/15) 7:11 AM EDT (4/15)
Length of Visible Light 14h 04m
Length of Day
13h 10m
Full, 100% of the Moon is Illuminated
Apr 15
Full
Apr 22
Last Quarter
Apr 29
New
May 6
First Quarter
May 14
Full

Hourly Weather History & Observations

Time (EDT) Temp. Windchill Dew Point Humidity Pressure Visibility Wind Dir Wind Speed Gust Speed Precip Events Conditions
12:15 AM 48.2 °F - 46.4 °F 93% 29.78 in 10.0 mi NW 11.5 mph 21.9 mph N/A Rain Light Rain
12:35 AM 46.4 °F 40.7 °F 46.4 °F 100% 29.78 in 10.0 mi NW 12.7 mph - N/A Rain Light Rain
1:15 AM 44.6 °F 39.2 °F 44.6 °F 100% 29.80 in 3.0 mi WNW 10.4 mph 17.3 mph N/A   Heavy Drizzle
1:35 AM 44.6 °F 38.8 °F 42.8 °F 93% 29.81 in 4.0 mi NNW 11.5 mph 20.7 mph N/A Rain Light Rain
1:55 AM 42.8 °F 36.6 °F 42.8 °F 100% 29.81 in 5.0 mi NNW 11.5 mph 19.6 mph N/A Rain Light Rain
2:15 AM 42.8 °F 35.8 °F 41.0 °F 93% 29.82 in 7.0 mi NNW 13.8 mph 21.9 mph N/A   Drizzle
2:35 AM 41.0 °F 32.2 °F 37.4 °F 87% 29.82 in 5.0 mi NNW 18.4 mph 28.8 mph N/A   Drizzle
2:55 AM 37.4 °F 28.2 °F 35.6 °F 93% 29.83 in 7.0 mi North 16.1 mph 28.8 mph N/A   Heavy Drizzle
3:15 AM 37.4 °F 28.9 °F 35.6 °F 93% 29.85 in 5.0 mi NNW 13.8 mph 20.7 mph N/A   Heavy Drizzle
3:35 AM 35.6 °F 25.2 °F 35.6 °F 100% 29.86 in 2.5 mi NNW 18.4 mph 26.5 mph N/A Rain Light Rain
3:55 AM 35.6 °F 27.1 °F 35.6 °F 100% 29.87 in 4.0 mi NNW 12.7 mph - N/A   Heavy Drizzle
4:15 AM 35.6 °F 25.5 °F 33.8 °F 93% 29.87 in 3.0 mi NNW 17.3 mph 25.3 mph N/A Rain Light Rain
4:35 AM 35.6 °F 26.2 °F 33.8 °F 93% 29.87 in 4.0 mi NNW 15.0 mph 20.7 mph N/A Rain Light Rain
5:00 AM 33.8 °F 24.8 °F 32.0 °F 93% 29.88 in 4.0 mi NNW 12.7 mph 20.7 mph N/A Rain Light Rain
5:15 AM 33.8 °F 25.3 °F 33.8 °F 100% 29.88 in 5.0 mi NNW 11.5 mph - N/A Rain Light Rain
5:35 AM 32.0 °F 23.0 °F 32.0 °F 100% 29.90 in 7.0 mi NW 11.5 mph 20.7 mph N/A Rain Light Rain
5:55 AM 32.0 °F 22.5 °F 32.0 °F 100% 29.89 in 2.5 mi NNW 12.7 mph 19.6 mph N/A Snow Light Snow
6:15 AM 32.0 °F - 32.0 °F 100% 29.91 in 1.0 mi Calm Calm - N/A Snow Light Snow
6:35 AM 32.0 °F - 32.0 °F 100% 29.92 in 2.0 mi Calm Calm - N/A Snow Light Snow
6:55 AM 32.0 °F - 32.0 °F 100% 29.92 in 1.5 mi Calm Calm - N/A Snow Light Snow
7:15 AM 32.0 °F - 32.0 °F 100% 29.94 in 1.2 mi Calm Calm - N/A Snow Snow
7:35 AM 32.0 °F - 32.0 °F 100% 29.96 in 1.0 mi Calm Calm - N/A Snow Light Snow
7:55 AM 32.0 °F - 32.0 °F 100% 29.98 in 1.2 mi Calm Calm - N/A Snow Light Snow
8:15 AM 32.0 °F - 32.0 °F 100% 29.98 in 2.0 mi Calm Calm - N/A Snow Light Snow
8:35 AM 32.0 °F 24.8 °F 32.0 °F 100% 29.99 in 3.0 mi NNW 8.1 mph - N/A Snow Light Snow
9:00 AM 32.0 °F 24.8 °F 32.0 °F 100% 30.00 in 2.5 mi NNW 8.1 mph - N/A Snow Light Snow
9:15 AM 32.0 °F 23.0 °F 32.0 °F 100% 30.00 in 10.0 mi North 11.5 mph - N/A   Overcast
9:35 AM 32.0 °F 24.2 °F 32.0 °F 100% 30.00 in 10.0 mi North 9.2 mph - N/A   Overcast
9:55 AM 32.0 °F 24.2 °F 32.0 °F 100% 30.02 in 10.0 mi NNW 9.2 mph - N/A   Overcast
10:15 AM 32.0 °F 24.2 °F 32.0 °F 100% 30.01 in 10.0 mi NNW 9.2 mph - N/A   Overcast
10:35 AM 33.8 °F 25.8 °F 32.0 °F 93% 30.01 in 10.0 mi North 10.4 mph - N/A   Overcast
10:55 AM 33.8 °F 26.4 °F 32.0 °F 93% 30.03 in 10.0 mi North 9.2 mph - N/A   Overcast
11:15 AM 33.8 °F 28.6 °F 32.0 °F 93% 30.04 in 10.0 mi North 5.8 mph - N/A   Overcast
11:35 AM 33.8 °F 25.8 °F 32.0 °F 93% 30.05 in 10.0 mi North 10.4 mph - N/A   Overcast
11:55 AM 33.8 °F 27.0 °F 32.0 °F 93% 30.06 in 10.0 mi North 8.1 mph - N/A   Overcast
12:15 PM 33.8 °F 25.8 °F 32.0 °F 93% 30.06 in 10.0 mi North 10.4 mph - N/A   Overcast
12:35 PM 33.8 °F 26.4 °F 32.0 °F 93% 30.07 in 10.0 mi North 9.2 mph - N/A   Overcast
12:55 PM 35.6 °F 28.0 °F 32.0 °F 87% 30.07 in 10.0 mi NNW 10.4 mph - N/A   Overcast
1:30 PM 33.8 °F 28.6 °F 32.0 °F 93% 30.08 in 4.0 mi NNW 5.8 mph - N/A Snow Light Snow
1:55 PM 35.6 °F 26.2 °F 32.0 °F 87% 30.08 in 10.0 mi NNW 15.0 mph 20.7 mph N/A   Overcast
2:15 PM 37.4 °F 30.3 °F 30.2 °F 75% 30.09 in 10.0 mi NNW 10.4 mph 16.1 mph N/A   Overcast
2:35 PM 39.2 °F 33.0 °F 26.6 °F 61% 30.09 in 10.0 mi NNW 9.2 mph 19.6 mph N/A   Overcast
2:55 PM 37.4 °F 28.2 °F 28.4 °F 70% 30.10 in 10.0 mi NNW 16.1 mph 21.9 mph N/A   Overcast
3:15 PM 37.4 °F 29.8 °F 28.4 °F 70% 30.10 in 10.0 mi NW 11.5 mph 17.3 mph N/A   Overcast
3:35 PM 37.4 °F 29.8 °F 30.2 °F 75% 30.10 in 10.0 mi NNW 11.5 mph 17.3 mph N/A   Overcast
3:55 PM 37.4 °F 30.3 °F 28.4 °F 70% 30.10 in 10.0 mi North 10.4 mph - N/A   Overcast
4:35 PM 39.2 °F 31.6 °F 26.6 °F 61% 30.11 in 10.0 mi NNW 12.7 mph 18.4 mph N/A   Overcast
5:00 PM 39.2 °F 31.6 °F 26.6 °F 61% 30.11 in 10.0 mi NNW 12.7 mph 16.1 mph N/A   Mostly Cloudy
5:15 PM 39.2 °F 31.6 °F 23.0 °F 52% 30.12 in 10.0 mi NNW 12.7 mph 23.0 mph N/A   Overcast
5:35 PM 37.4 °F 29.8 °F 26.6 °F 65% 30.12 in 10.0 mi North 11.5 mph - N/A   Overcast
5:55 PM 41.0 °F 34.3 °F 28.4 °F 61% 30.12 in 10.0 mi North 11.5 mph 16.1 mph N/A   Overcast
6:15 PM 39.2 °F 33.0 °F 26.6 °F 61% 30.14 in 10.0 mi NNW 9.2 mph - N/A   Overcast
6:35 PM 37.4 °F 29.8 °F 24.8 °F 60% 30.15 in 10.0 mi NNW 11.5 mph 17.3 mph N/A   Overcast
6:55 PM 37.4 °F 30.3 °F 23.0 °F 56% 30.16 in 10.0 mi NNW 10.4 mph - N/A   Mostly Cloudy
7:15 PM 37.4 °F 29.3 °F 23.0 °F 56% 30.17 in 10.0 mi North 12.7 mph - N/A   Mostly Cloudy
7:35 PM 37.4 °F 29.8 °F 24.8 °F 60% 30.17 in 10.0 mi North 11.5 mph - N/A   Mostly Cloudy
8:15 PM 35.6 °F 29.2 °F 23.0 °F 60% 30.19 in 10.0 mi North 8.1 mph - N/A   Scattered Clouds
8:35 PM 33.8 °F 28.6 °F 23.0 °F 65% 30.19 in 10.0 mi NNE 5.8 mph - N/A   Clear
8:55 PM 32.0 °F 26.4 °F 23.0 °F 69% 30.20 in 10.0 mi NNE 5.8 mph - N/A   Clear
9:15 PM 32.0 °F 27.5 °F 23.0 °F 69% 30.20 in 10.0 mi NNE 4.6 mph - N/A   Clear
9:35 PM 32.0 °F 28.7 °F 24.8 °F 75% 30.21 in 10.0 mi NE 3.5 mph - N/A   Clear
9:55 PM 32.0 °F 28.7 °F 24.8 °F 75% 30.21 in 10.0 mi NE 3.5 mph - N/A   Clear
10:15 PM 32.0 °F 28.7 °F 24.8 °F 75% 30.22 in 10.0 mi NE 3.5 mph - N/A   Clear
10:35 PM 32.0 °F - 24.8 °F 75% 30.22 in 10.0 mi Calm Calm - N/A   Clear
10:55 PM 30.2 °F 26.7 °F 24.8 °F 80% 30.23 in 10.0 mi NE 3.5 mph - N/A   Clear
11:15 PM 32.0 °F - 24.8 °F 75% 30.24 in 10.0 mi Calm Calm - N/A   Clear
11:35 PM 32.0 °F 27.5 °F 24.8 °F 75% 30.23 in 10.0 mi NE 4.6 mph - N/A   Clear
11:55 PM 32.0 °F 28.7 °F 23.0 °F 69% 30.23 in 10.0 mi NE 3.5 mph - N/A   Clear